Gainesville, GA

10:21 PM EDT on July 27, 2017 (GMT -0400)
Gilmer Memorial

Weather History for KGVL - September, 2014

Change the Weather History Date:

Sunday, September 14, 2014

  Actual Average Record
Temperature  
Mean Temperature 68 °F 73 °F  
Max Temperature 72 °F 81 °F 93 °F (1930)
Min Temperature 63 °F 64 °F 42 °F (1940)
Degree Days  
Heating Degree Days 0 0  
Month to date heating degree days 0 0  
Since 1 July heating degree days 0 0  
Cooling Degree Days 3 8  
Month to date cooling degree days 178 133  
Year to date cooling degree days 1525 1459  
Growing Degree Days 17 (Base 50)    
Moisture  
Dew Point 64 °F    
Average Humidity 91    
Maximum Humidity 100    
Minimum Humidity 81    
Precipitation  
Precipitation 0.50 in 0.17 in 5.73 in (1973)
Month to date precipitation 3.87 2.14  
Year to date precipitation 32.66 38.39  
Sea Level Pressure  
Sea Level Pressure 30.21 in    
Wind  
Wind Speed 9 mph (ENE)    
Max Wind Speed 15 mph    
Max Gust Speed 20 mph    
Visibility 8 miles    
Events Rain    
T = Trace of Precipitation, MM = Missing Value Source: NWS Daily Summary

Daily Weather History Graph

Daily Weather History Graph

Search for Another Location

Airport or City:

Trip Planner

Search our weather history database for the weather conditions in past years. The results will help you decide how hot, cold, wet, or windy it might be!

Date:

Astronomy

Sep. 14, 2014 Rise Set
Actual Time 7:17 AM EDT 7:43 PM EDT
Civil Twilight 6:52 AM EDT 8:08 PM EDT
Nautical Twilight 6:23 AM EDT 8:37 PM EDT
Astronomical Twilight 5:52 AM EDT 9:07 PM EDT
Moon 11:50 PM EDT (9/14) 1:08 PM EDT (9/14)
Length of Visible Light 13h 15m
Length of Day
12h 25m
Waning Gibbous, 64% of the Moon is Illuminated
Sep 14
Waning Gibbous
Sep 15
Last Quarter
Sep 24
New
Oct 1
First Quarter
Oct 8
Full

Hourly Weather History & Observations

Time (EDT) Temp. Dew Point Humidity Pressure Visibility Wind Dir Wind Speed Gust Speed Precip Events Conditions
12:53 AM 72.0 °F 68.0 °F 87% 30.13 in 10.0 mi ENE 4.6 mph - N/A   Clear
1:10 AM 72.0 °F 68.0 °F 87% 30.18 in 10.0 mi ENE 5.8 mph - N/A   Scattered Clouds
1:53 AM 72.0 °F 69.1 °F 91% 30.13 in 10.0 mi East 8.1 mph - N/A   Scattered Clouds
2:06 AM 71.1 °F 69.1 °F 93% 30.17 in 10.0 mi East 6.9 mph - N/A   Mostly Cloudy
2:13 AM 71.1 °F 69.1 °F 93% 30.17 in 10.0 mi East 8.1 mph - N/A   Mostly Cloudy
2:22 AM 72.0 °F 69.1 °F 91% 30.17 in 10.0 mi East 8.1 mph - N/A   Overcast
2:31 AM 72.0 °F 70.0 °F 93% 30.17 in 10.0 mi East 8.1 mph - N/A   Overcast
2:53 AM 72.0 °F 69.1 °F 91% 30.12 in 10.0 mi East 8.1 mph - N/A   Overcast
2:59 AM 72.0 °F 69.1 °F 91% 30.17 in 10.0 mi East 11.5 mph - N/A   Overcast
3:37 AM 71.1 °F 68.0 °F 90% 30.17 in 10.0 mi East 8.1 mph - N/A   Overcast
3:46 AM 71.1 °F 68.0 °F 90% 30.17 in 10.0 mi East 10.4 mph - N/A   Overcast
3:53 AM 71.1 °F 68.0 °F 90% 30.12 in 10.0 mi East 10.4 mph - N/A   Overcast
4:15 AM 71.1 °F 68.0 °F 90% 30.17 in 10.0 mi East 10.4 mph - N/A   Overcast
4:53 AM 70.0 °F 66.9 °F 90% 30.12 in 9.0 mi ENE 10.4 mph - N/A   Overcast
5:15 AM 69.1 °F 66.9 °F 93% 30.17 in 7.0 mi ENE 11.5 mph - N/A   Overcast
5:35 AM 69.1 °F 66.9 °F 93% 30.18 in 9.0 mi East 11.5 mph - N/A   Overcast
5:53 AM 69.1 °F 66.9 °F 93% 30.14 in 8.0 mi East 9.2 mph - N/A   Overcast
6:11 AM 68.0 °F 66.9 °F 96% 30.20 in 4.0 mi ENE 9.2 mph 16.1 mph 0.00 in Rain Light Rain
6:28 AM 68.0 °F 66.9 °F 96% 30.20 in 2.5 mi ENE 9.2 mph - 0.01 in Rain Light Rain
6:46 AM 68.0 °F 66.9 °F 96% 30.21 in 5.0 mi Variable 3.5 mph - 0.04 in Rain Light Rain
6:53 AM 68.0 °F 66.9 °F 96% 30.18 in 3.0 mi North - - 0.12 in Rain Light Rain
6:56 AM 68.0 °F 66.0 °F 93% 30.22 in 2.0 mi North - - 0.10 in Rain Heavy Rain
6:58 AM 66.9 °F 66.0 °F 97% 30.22 in 1.5 mi NE 11.5 mph - 0.15 in Rain Heavy Rain
7:09 AM 66.9 °F 66.0 °F 97% 30.23 in 2.0 mi ENE 5.8 mph - 0.27 in Rain Heavy Rain
7:15 AM 66.9 °F 66.0 °F 97% 30.23 in 2.5 mi East 6.9 mph - 0.31 in Rain Heavy Rain
7:18 AM 66.9 °F 66.0 °F 97% 30.23 in 3.0 mi ENE 8.1 mph - 0.33 in Rain Heavy Rain
7:25 AM 66.9 °F 66.0 °F 97% 30.23 in 4.0 mi ENE 8.1 mph - 0.35 in Rain Heavy Rain
7:53 AM 66.9 °F 64.9 °F 93% 30.19 in 10.0 mi ENE 8.1 mph - 0.37 in Rain Light Rain
8:03 AM 66.9 °F 64.9 °F 93% 30.24 in 10.0 mi ENE 6.9 mph - 0.00 in   Overcast
8:18 AM 66.9 °F 64.9 °F 93% 30.24 in 10.0 mi ENE 6.9 mph - 0.00 in   Overcast
8:53 AM 66.0 °F 64.9 °F 96% 30.20 in 10.0 mi ENE 10.4 mph - 0.01 in   Overcast
9:26 AM 66.0 °F 64.0 °F 93% 30.25 in 10.0 mi ENE 11.5 mph - N/A   Overcast
9:33 AM 66.0 °F 63.0 °F 90% 30.25 in 10.0 mi East 11.5 mph - N/A   Overcast
9:53 AM 64.9 °F 63.0 °F 93% 30.22 in 10.0 mi ENE 10.4 mph - N/A   Overcast
10:19 AM 64.9 °F 63.0 °F 93% 30.27 in 10.0 mi ENE 9.2 mph - N/A   Overcast
10:53 AM 66.0 °F 63.0 °F 90% 30.24 in 10.0 mi ENE 10.4 mph - N/A   Overcast
11:34 AM 66.0 °F 62.1 °F 87% 30.27 in 10.0 mi ENE 12.7 mph - N/A   Overcast
11:53 AM 66.0 °F 62.1 °F 87% 30.23 in 10.0 mi East 12.7 mph - N/A   Overcast
12:00 PM 66.0 °F 62.1 °F 87% 30.26 in 10.0 mi ENE 10.4 mph - N/A   Overcast
12:09 PM 64.9 °F 62.1 °F 90% 30.26 in 10.0 mi ENE 11.5 mph - N/A   Overcast
12:53 PM 64.9 °F 62.1 °F 90% 30.23 in 7.0 mi ENE 8.1 mph - N/A   Overcast
1:10 PM 66.0 °F 62.1 °F 87% 30.26 in 10.0 mi East 10.4 mph - N/A   Overcast
1:38 PM 66.0 °F 62.1 °F 87% 30.26 in 10.0 mi ENE 9.2 mph - N/A   Overcast
1:53 PM 64.9 °F 62.1 °F 90% 30.23 in 10.0 mi NE 6.9 mph - N/A   Overcast
2:53 PM 64.9 °F 62.1 °F 90% 30.22 in 10.0 mi ENE 9.2 mph - N/A   Overcast
3:53 PM 64.9 °F 61.0 °F 87% 30.20 in 10.0 mi NE 6.9 mph - N/A   Overcast
4:16 PM 64.9 °F 61.0 °F 87% 30.23 in 10.0 mi ENE 8.1 mph - N/A   Overcast
4:41 PM 66.0 °F 61.0 °F 84% 30.23 in 10.0 mi ENE 5.8 mph - N/A   Overcast
4:53 PM 66.0 °F 61.0 °F 84% 30.20 in 10.0 mi East 9.2 mph - N/A   Overcast
5:53 PM 66.0 °F 61.0 °F 84% 30.19 in 10.0 mi East 8.1 mph - N/A   Overcast
6:06 PM 66.0 °F 61.0 °F 84% 30.22 in 10.0 mi East 9.2 mph - N/A   Overcast
6:30 PM 64.9 °F 61.0 °F 87% 30.21 in 10.0 mi East 9.2 mph - N/A   Overcast
6:53 PM 64.9 °F 61.0 °F 87% 30.19 in 10.0 mi ESE 4.6 mph - N/A   Overcast
7:53 PM 64.0 °F 61.0 °F 90% 30.20 in 10.0 mi East 8.1 mph - N/A   Overcast
8:39 PM 64.0 °F 61.0 °F 90% 30.24 in 10.0 mi East 6.9 mph - N/A   Overcast
8:53 PM 64.0 °F 61.0 °F 90% 30.22 in 10.0 mi East 10.4 mph - N/A   Overcast
9:10 PM 64.0 °F 61.0 °F 90% 30.25 in 6.0 mi East 9.2 mph - N/A   Overcast
9:40 PM 63.0 °F 62.1 °F 97% 30.26 in 2.5 mi East 5.8 mph - N/A   Overcast
9:48 PM 62.6 °F 62.6 °F 100% 30.26 in 5.0 mi East 6.9 mph - N/A   Overcast
9:53 PM 63.0 °F 62.1 °F 97% 30.23 in 6.0 mi East 6.9 mph - N/A   Overcast
10:07 PM 64.0 °F 62.1 °F 93% 30.26 in 7.0 mi ENE 5.8 mph - N/A   Overcast
10:35 PM 63.0 °F 62.1 °F 97% 30.27 in 4.0 mi ENE 5.8 mph - N/A   Overcast
10:53 PM 63.0 °F 62.1 °F 97% 30.24 in 4.0 mi ENE 5.8 mph - N/A   Overcast
11:10 PM 63.0 °F 62.1 °F 97% 30.27 in 2.5 mi ENE 3.5 mph - N/A   Overcast
11:23 PM 63.0 °F 62.1 °F 97% 30.27 in 2.5 mi ENE 6.9 mph - N/A   Overcast
11:37 PM 63.0 °F 62.1 °F 97% 30.27 in 3.0 mi East 6.9 mph - N/A   Overcast
11:53 PM 63.0 °F 62.1 °F 97% 30.25 in 2.5 mi ENE 6.9 mph - N/A   Overcast